Location: ???????
(55.7027°N, 37.3832°E)
Time: 14:56:06
(UTC+00:00)

Cosmos 1758 Rocket - Pass Details

Date: 14 April 2026
Orbit: 595 x 628 km, 82.5° (Epoch: 17 May)

Event Time Altitude Azimuth Distance (km) Brightness Sun altitude
Rises 22:16:04 0° 347° (NNW) 2,855 8.0 -23.9°
Reaches altitude 10° 22:18:17 10° 346° (NNW) 1,947 7.0 -23.9°
Enters shadow 22:22:27 80° 293° (WNW) 613 3.4 -23.7°
